Weather History for Homer, AK

Change the Weather History Date:

Wednesday, July 24, 2013

  Actual Average Record
Temperature  
Mean Temperature 62 °F -  
Max Temperature 72 °F 61 °F 72 °F (2013)
Min Temperature 52 °F 47 °F 37 °F (1946)
Degree Days  
Heating Degree Days 4    
Growing Degree Days 12 (Base 50)    
Moisture  
Dew Point 51 °F    
Average Humidity 66    
Maximum Humidity 86    
Minimum Humidity 47    
Precipitation  
Precipitation 0.00 in - - ()
Sea Level Pressure  
Sea Level Pressure 30.02 in    
Wind  
Wind Speed 6 mph (SE)    
Max Wind Speed 14 mph    
Max Gust Speed -    
Visibility 10 miles    
Events      
Averages and records for this station are not official NWS values.
T = Trace of Precipitation, MM = Missing Value Source: NWS Daily Summary

Daily Weather History Graph

Daily Weather History Graph

Search for Another Location

Airport:

Trip Planner

Search our weather history database for the weather conditions in past years. The results will help you decide how hot, cold, wet, or windy it might be!

Date:

Astronomy

Jul. 24, 2013 Rise Set
Actual Time 5:32 AM AKDT 10:51 PM AKDT
Civil Twilight 4:26 AM AKDT 11:55 PM AKDT
Nautical Twilight 2:44 AM AKDT 1:39 AM AKDT
Astronomical Twilight Sun does not rise Sun does not rise
Moon 10:55 PM AKDT (7/24) 9:01 AM AKDT (7/24)
Length of Visible Light 19h 28m
Length of Day
17h 19m
Waning Gibbous, 94% of the Moon is Illuminated
Jul 24
Waning Gibbous
Jul 29
Last Quarter
Aug 6
New
Aug 14
First Quarter
Aug 20
Full

Hourly Weather History & Observations

Time (AKDT) Temp. Dew Point Humidity Pressure Visibility Wind Dir Wind Speed Gust Speed Precip Events Conditions
12:53 AM 54.0 °F 50.0 °F 86% 30.07 in 10.0 mi NE 3.5 mph - N/A   Clear
1:53 AM 54.0 °F 48.9 °F 83% 30.06 in 10.0 mi ENE 4.6 mph - N/A   Clear
2:53 AM 53.1 °F 48.0 °F 83% 30.06 in 10.0 mi NE 5.8 mph - N/A   Clear
3:53 AM 53.1 °F 46.9 °F 80% 30.05 in 10.0 mi NE 4.6 mph - N/A   Clear
4:53 AM 53.1 °F 48.0 °F 83% 30.05 in 10.0 mi ENE 4.6 mph - N/A   Clear
5:53 AM 52.0 °F 46.9 °F 83% 30.04 in 10.0 mi ENE 3.5 mph - N/A   Clear
6:53 AM 55.0 °F 48.9 °F 80% 30.04 in 10.0 mi NE 3.5 mph - N/A   Clear
7:53 AM 60.1 °F 52.0 °F 75% 30.03 in 10.0 mi East 3.5 mph - N/A   Clear
8:53 AM 63.0 °F 51.1 °F 65% 30.03 in 10.0 mi East 4.6 mph - N/A   Clear
9:53 AM 66.0 °F 48.9 °F 54% 30.03 in 10.0 mi East 5.8 mph - N/A   Clear
10:53 AM 70.0 °F 52.0 °F 53% 30.02 in 10.0 mi SE 5.8 mph - N/A   Clear
11:53 AM 71.1 °F 50.0 °F 47% 30.01 in 10.0 mi South 4.6 mph - N/A   Clear
12:53 PM 69.1 °F 51.1 °F 53% 30.02 in 10.0 mi WSW 11.5 mph - N/A   Clear
1:53 PM 70.0 °F 52.0 °F 53% 30.01 in 10.0 mi WSW 10.4 mph - N/A   Clear
2:53 PM 69.1 °F 52.0 °F 54% 30.00 in 10.0 mi WSW 10.4 mph - N/A   Clear
3:53 PM 64.0 °F 52.0 °F 65% 30.00 in 10.0 mi SW 10.4 mph - N/A   Clear
4:53 PM 66.9 °F 52.0 °F 59% 30.00 in 10.0 mi SW 10.4 mph - N/A   Clear
5:53 PM 69.1 °F 50.0 °F 51% 29.99 in 10.0 mi WSW 13.8 mph - N/A   Clear
6:53 PM 68.0 °F 51.1 °F 55% 29.99 in 10.0 mi WSW 11.5 mph - N/A   Clear
7:53 PM 66.0 °F 52.0 °F 60% 29.99 in 10.0 mi WSW 12.7 mph - N/A   Clear
8:53 PM 66.9 °F 53.1 °F 61% 29.99 in 10.0 mi WSW 9.2 mph - N/A   Clear
9:53 PM 68.0 °F 53.1 °F 59% 29.99 in 10.0 mi West 5.8 mph - N/A   Clear
10:53 PM 63.0 °F 53.1 °F 70% 29.99 in 10.0 mi Calm Calm - N/A   Clear
11:53 PM 59.0 °F 52.0 °F 78% 29.99 in 10.0 mi ENE 6.9 mph - N/A   Clear